{"data":{"norad_id":65511,"intl_designator":"2025-198V","name":"STARLINK-35124","alt_names":[],"object_type":"PAYLOAD","status":"ACTIVE","operator":null,"country":"US","launch_date":"2025-09-05","launch_site_code":"AFETR","launch_vehicle":null,"mission":null,"orbit_class":"UNKNOWN","rcs_meters":null,"size_class":null,"mass_kg":null,"dimensions":null,"purposes":["comms"],"wikipedia_slug":null,"has_3d_model":false,"image_url":null,"decayed_at":null,"tle_current":{"epoch":"2026-05-24T19:55:04.388160Z","epoch_age_seconds":86981,"freshness":"FRESH","line1":"1 65511U 25198V   26144.82991190  .00034762  00000+0  10348-2 0  9998","line2":"2 65511  53.1595 276.1854 0000950 107.4907 252.6200 15.34411763 40289","mean_motion":15.34411763,"eccentricity":9.5e-5,"inclination_deg":53.1595,"raan_deg":276.1854,"arg_perigee_deg":107.4907,"mean_anomaly_deg":252.62,"bstar":0.0010348,"rev_number":4028,"period_min":93.847038632224,"perigee_km":462.01840181408,"apogee_km":463.31815481696,"semimajor_km":6840.8052783155,"source":"CELESTRAK","updated_at":"2026-05-25T13:38:20.843747Z"}}}